{"data":{"norad_id":60606,"epoch":"2026-09-19T20:20:23.781408Z","epoch_age_seconds":74676,"freshness":"FRESH","line1":"1 60606U 24151A   26262.84749747 -.00000368  00000+0  00000+0 0  9995","line2":"2 60606   1.0773 269.9698 0000833  19.7572 132.3688  1.00271142  7705","mean_motion":1.00271142,"eccentricity":8.33e-5,"inclination_deg":1.0773,"raan_deg":269.9698,"arg_perigee_deg":19.7572,"mean_anomaly_deg":132.3688,"bstar":0,"rev_number":770,"period_min":1436.1061131626,"perigee_km":35783.262881208,"apogee_km":35790.287555583,"semimajor_km":42164.912218396,"source":"CELESTRAK","updated_at":"2026-09-20T09:00:35.338619Z"}}